Preview of NWS' New Version of Forecast
This preview is not operational and should not be used for support decisions.
Latest weather observations around

Dallas Love Field (KDAL)

Using English Units (Switch to International System of Units)
Date/ Time (CDT) Wind (mph) Vis. (mi) Weather Sky Cond. Temp (°F) Rel. Humidity Wind Chill (°F) Heat Index (°F) Pressure Precip. (in)
Air Dwpt 6 hour Altimeter (inHg) Sea level (inHg) 1 hr 3 hr 6 hr
Max Min
Sep 16 08:53 ESE 5 10 Mostly Clear FEW250 84 68     59%   87 30.05 30.03      
Sep 16 07:53 E 5 10 Mostly Clear FEW250 81 68     65%   84 30.05 30.02      
Sep 16 06:53 Calm 10 Clear CLR 80 67     64%   82 30.04 30.01      
Sep 16 05:53 E 3 10 Clear CLR 81 67     62%   83 30.03 30      
Sep 16 04:53 E 3 10 Clear CLR 81 66     61%   83 30.02 30      
Sep 16 03:53 E 5 10 Clear CLR 81 67     62%   83 30.03 30      
Sep 16 02:53 E 5 10 Clear CLR 83 67     59%   86 30.03 30.01      
Sep 16 01:53 E 5 10 Clear CLR 84 67     57%   87 30.03 30.01      
Sep 16 00:53 E 3 10 Clear CLR 85 68     57%   88 30.03 30      
Sep 15 23:53 E 3 10 Clear CLR 86 67     53%   89 30.03 30      
Sep 15 22:53 E 3 10 Clear CLR 88 66     48%   90 30.02 29.99      
Sep 15 21:53 E 3 10 Clear CLR 89 65     45%   91 30.01 29.98      
Sep 15 20:53 E 3 10 Clear CLR 90 65     44%   92 30 29.98      
Sep 15 19:53 E 7 10 Mostly Clear FEW300 92 64     40%   94 29.99 29.97      
Sep 15 18:53 ESE 7 10 Mostly Clear FEW080 FEW300 94 64     37%   96 29.99 29.96      
Sep 15 17:53 E 9 10 Mostly Clear FEW080 96 61     31%   97 29.99 29.96      
Sep 15 16:53 NE 7 10 Mostly Clear FEW075 98 63     32%   100 29.99 29.96      
Sep 15 15:53 E 10 10 Mostly Clear FEW075 97 62     32%   98 30 29.97      
Sep 15 15:07 NNE 8 10 Mostly Clear FEW001 FEW075 99 62     30%   101 30.01        
Sep 15 14:53 E 8 10 Mostly Clear FEW075 97 61     31%   98 30.02 30      
Sep 15 13:53 E 9 10 Mostly Clear FEW075 FEW300 97 61     31%   98 30.05 30.02      
Sep 15 12:53 SE 8 10 Mostly Clear FEW070 FEW300 96 64     35%   98 30.07 30.04      
Sep 15 11:53 SE 8 10 Mostly Clear FEW060 FEW300 94 64     37%   96 30.09 30.06      
Sep 15 10:53 Calm 10 Mostly Clear FEW300 90 66     45%   93 30.1 30.07      
Sep 15 09:53 Calm 10 Mostly Clear FEW300 86 66     51%   88 30.09 30.06      
Sep 15 08:53 E 3 10 Mostly Clear FEW300 82 66     58%   84 30.08 30.06      
Sep 15 07:53 E 3 10 Mostly Clear FEW300 79 66     65%   80 30.08 30.06      
Sep 15 06:53 E 6 10 Mostly Clear FEW250 79 66     65%   80 30.08 30.05      
Sep 15 05:53 ESE 5 10 Clear CLR 80 66     62%   82 30.07 30.04      
Sep 15 04:53 E 5 10 Clear CLR 81 66     61%   83 30.07 30.04      
Sep 15 03:53 ESE 3 10 Clear CLR 82 66     58%   84 30.07 30.05      
Sep 15 02:53 ESE 6 10 Mostly Clear FEW110 84 66     55%   86 30.07 30.05      
Sep 15 01:53 E 6 10 Mostly Clear FEW085 85 66     53%   87 30.08 30.05      
Sep 15 00:53 E 5 10 Mostly Clear FEW085 FEW110 86 65     50%   88 30.07 30.05      
Sep 14 23:53 E 5 10 Mostly Clear FEW090 FEW300 87 64     46%   88 30.08 30.05      
Sep 14 22:53 E 3 10 Mostly Clear FEW120 88 64     45%   89 30.08 30.05      
Sep 14 21:53 E 5 10 Mostly Clear FEW120 89 64     44%   90 30.07 30.05      
Sep 14 20:53 E 5 10 Mostly Clear FEW120 90 64     42%   91 30.06 30.03      
Sep 14 19:53 E 6 10 Mostly Clear FEW120 92 62     37%   93 30.05 30.02      
Sep 14 18:53 E 6 10 Mostly Clear FEW090 FEW300 95 61     33%   95 30.04 30.01      
Sep 14 17:53 E 8 10 Mostly Clear FEW090 FEW300 97 59     29%   97 30.04 30.01      
Sep 14 16:53 E 7 10 Mostly Clear FEW085 FEW110 97 59     29%   97 30.04 30.01      
Sep 14 15:53 E 7 10 Mostly Clear FEW085 FEW110 98 59     28%   98 30.05 30.02      
Sep 14 14:53 SE 7 10 Partly Cloudy FEW080 FEW120 SCT300 98 60     29%   98 30.07 30.05      
Sep 14 13:53 SE 10 10 Mostly Clear FEW070 FEW300 97 59     29%   97 30.1 30.07      
Sep 14 12:53 6 10 Partly Cloudy FEW060 SCT300 95 62     34%   96 30.13 30.1      
Sep 14 11:53 5 10 Partly Cloudy SCT300 93 64     38%   95 30.15 30.13      
Sep 14 10:53 ESE 8 10 Partly Cloudy SCT300 90 65     44%   92 30.17 30.14      
Sep 14 09:53 SE 8 10 Partly Cloudy SCT300 88 66     48%   90 30.17 30.14      
Sep 14 08:53 SE 7 10 Partly Cloudy SCT300 83 67     59%   86 30.16 30.14      
Sep 14 07:53 ESE 6 10 Partly Cloudy FEW150 SCT300 80 67     64%   82 30.15 30.13      
Sep 14 06:53 E 5 10 Partly Cloudy FEW150 SCT300 78 67     69%   79 30.14 30.11      
Sep 14 05:53 E 5 10 Mostly Clear FEW300 79 68     69%   80 30.13 30.1      
Sep 14 04:53 E 5 10 Mostly Clear FEW300 79 68     69%   80 30.12 30.09      
Sep 14 03:53 ESE 3 10 Partly Cloudy SCT300 80 68     67%   83 30.12 30.09      
Sep 14 02:53 Calm 10 Mostly Cloudy BKN300 81 68     65%   84 30.13 30.1      
Sep 14 01:53 ENE 5 10 Mostly Cloudy BKN300 82 68     63%   85 30.13 30.11      
Sep 14 00:53 ENE 7 10 Mostly Cloudy BKN300 83 68     61%   86 30.12 30.09      
Sep 13 23:53 NE 3 10 Mostly Cloudy FEW250 BKN300 84 63     49%   85 30.12 30.09      
Sep 13 22:53 E 3 10 Partly Cloudy FEW250 SCT300 86 63     46%   87 30.11 30.09      
Sep 13 21:53 E 3 10 Mostly Cloudy FEW200 BKN250 87 64     46%   88 30.11 30.08      
Sep 13 20:53 E 7 10 Clear   89 62     41%   90 30.09 30.07      
Sep 13 19:53 E 6 10 Cloudy FEW070 SCT200 OVC250 91 60     36%   91 30.08 30.05      
Sep 13 18:53 SE 6 10 Mostly Cloudy FEW070 SCT200 BKN250 94 56     28%   92 30.07 30.04      
Sep 13 17:53 ENE 7 10 Mostly Cloudy FEW070 SCT200 BKN250 94 60     33%   94 30.07 30.04      
Sep 13 16:53 ESE 6 10 Mostly Cloudy FEW070 FEW110 SCT200 BKN250 95 61     33%   95 30.07 30.04      
Sep 13 15:53 ENE 6 10 Mostly Cloudy FEW075 FEW100 SCT200 BKN250 95 60     31%   95 30.08 30.06      
Sep 13 14:53 ESE 6 10 Mostly Cloudy FEW060 SCT160 BKN250 94 60     33%   94 30.11 30.08      
Sep 13 13:53 Calm 10 Mostly Cloudy FEW060 FEW075 FEW160 BKN250 95 62     34%   96 30.14 30.11      
Sep 13 12:53 SSW 9 10 Mostly Cloudy FEW060 SCT160 BKN250 93 61     35%   93 30.16 30.14      
Sep 13 11:53 S 5 10 Mostly Cloudy FEW045 FEW075 SCT160 BKN240 91 66     44%   94 30.18 30.15      
Sep 13 10:53 WNW 5 10 Mostly Cloudy FEW040 SCT070 SCT160 BKN240 89 67     48%   92 30.19 30.16      
Sep 13 09:53 WNW 7 10 Partly Cloudy FEW029 FEW060 FEW080 SCT160 SCT240 87 71     59%   93 30.18 30.16      
May 14 14:53 SSW 11 10 Mostly Cloudy SCT047 BKN055 BKN200 BKN250 89 67     48%   92 29.92 29.9      
May 14 11:12 SSW 11 10 Mostly Cloudy SCT029 BKN085 BKN250 82 69     65%   85 29.98        
May 14 05:53 S 10 10 Mostly Cloudy BKN016 BKN250 75 70     84%   76 29.97 29.95      
May 13 15:53 SSE 17 10 Partly Cloudy FEW050 SCT070 88 66     48%   90 29.94 29.92      
May 13 04:53 S 11 10 Mostly Clear FEW020 FEW200 75 69     82%   76 29.96 29.94      
Notice The following observation data may not be complete
May 12 18:53   10 Mostly Clear FEW060          %              
May 12 07:53   10 Mostly Cloudy BKN020 75 68     79%   76 29.97 29.94      
May 12 03:53   10 Mostly Cloudy BKN021 74 67     79%   75 29.91 29.89      
Jun 12 06:53 S 8 10 Mostly Clear FEW012 76 72     88%   77 29.92 29.9      
Jun 12 05:53 S 10 10 Mostly Cloudy BKN015 76 72     88%   77 29.91 29.89      
Jun 11 14:53 SSE 17 10 Clear   88 65     47%   90 29.92 29.9      
Jun 11 13:53 S 20 10 Partly Cloudy and Windy SCT044 87 65     48%   89 29.93 29.91      
Jun 11 05:53 S 11 10 Partly Cloudy SCT016 74 69     85%   75 29.9 29.88      
Jun 11 02:53 SSE 15 10 Clear CLR 77 69     77%   78 29.89 29.87      
Jun 10 12:53 S 14 10 Partly Cloudy FEW030 FEW070 SCT250 85 66     53%   87 29.9 29.88      
Jun 09 12:29 SSE 8 10 Cloudy BKN014 BKN060 OVC140 71 65     81%   72 29.94        
Jun 09 07:25   4 Thunderstorms and Heavy Rain SCT029 OVC050 68 62     81%     29.98   0    
Jun 07 15:53 NNW 7 10 Mostly Cloudy FEW055 SCT070 BKN120 BKN250 90 64     42%   91 29.94 29.92      
Jun 06 06:53 N 3 10 Mostly Clear FEW250 71 68     90%   72 29.86 29.83      
Jun 05 20:53 NNE 5 10 Mostly Cloudy FEW040 FEW170 BKN250 77 70     79%   78 29.78 29.75      
Jun 05 16:53 E 6 10 Light Rain FEW025 SCT040 BKN080 BKN130 BKN250 74 71     91%   75 29.76 29.74 0